Tracking 27428 objects as of 31-May-2023
HD Live streaming from Space Station
objects crossing your sky now

THOR ABLESTAR DEB

Track THOR ABLESTAR DEB now!
10-day predictions


NORAD ID: 20174
Int'l Code: 1961-015MK
Perigee: 796.8 km
Apogee: 1,533.3 km
Inclination: 67.1 °
Period: 108.5 minutes
Semi major axis: 7536 km
RCS: 0.0128 m2 (small)
Launch date: June 29, 1961
Source: United States (US)
Launch site: AIR FORCE EASTERN TEST RANGE (AFETR)

Note: This is SATELLITE DEBRIS
Your satellite tracking list
Your tracking list is empty




NASA's NSSDC Master Catalog

Two Line Element Set (TLE):
1 20174U 61015MK  23150.10372409  .00000322  00000-0  44975-3 0  9993
2 20174  67.0603 190.2801 0488653 163.4716 198.2923 13.27062051533867
Source of the keplerian elements: AFSPC